CAPE
1 1 0 0 0 1 3 1 0 0 0 0 0 0 0 0 0 0 0 0 0 0 0 0 0 0 0 0 0 0 0 0 0 0 0 0 0 0 0 0 0 0 0 0 0 0 0 0 0 0 0 0 0 0
0 1 0 0 0 1 0 1 0 0 0 1 0 0 0 0 0 0 0 0 0 0 0 0 0 0 0 0 0 0 0 0 0 0 0 0 0 0 0 0 0 0 0 0 0 0 0 0 0 0 0 0 0 0
0 0 0 0 0 2 1 0 0 0 0 0 0 0 0 0 0 0 0 0 0 0 0 0 0 0 0 0 0 0 0 0 0 0 0 0 0 0 0 0 0 0 0 0 0 0 0 0 0 0 0 0 0 0
0 0 0 0 0 1 0 0 0 0 0 0 0 0 0 0 0 0 0 0 0 0 0 0 0 0 0 0 0 0 0 0 0 0 0 0 0 0 0 0 0 0 0 0 0 0 0 0 0 0 0 0 0 0
0 0 0 0 0 0 0 0 0 0 0 0 0 0 0 0 0 0 0 0 0 0 0 0 0 0 0 0 0 0 0 0 0 0 0 0 0 0 0 0 0 0 0 0 0 0 0 0 0 0 0 0 0 0
0 0 0 0 0 0 0 0 0 0 0 0 1 0 0 0 0 0 0 0 0 0 0 0 0 0 0 0 0 0 0 0 0 0 0 0 0 0 0 0 0 0 0 0 0 0 0 0 0 0 0 0 0 0
0 0 0 0 0 0 0 0 0 0 0 0 0 0 0 0 0 0 0 0 0 0 0 0 0 0 0 0 0 0 0 0 0 0 0 0 0 0 0 0 0 0 0 0 0 0 0 0 0 0 0 0 0 0
0 0 0 0 0 0 0 0 0 0 0 0 0 0 0 0 0 0 0 0 0 0 0 0 0 0 0 0 0 0 0 0 0 0 0 0 0 0 0 0 0 0 0 0 0 0 0 0 0 0 0 0 0 0
1 0 0 0 0 0 0 0 2 0 0 0 0 0 0 0 0 0 0 0 0 0 0 0 0 0 0 0 0 0 0 0 0 0 0 0 0 0 0 0 0 0 0 0 0 0 0 0 0 0 0 0 0 0
0 0 0 0 0 0 0 2 5 0 0 0 0 0 0 0 0 0 0 0 0 0 0 0 0 0 0 0 0 0 0 0 0 0 0 0 0 0 0 0 0 0 0 0 0 0 0 0 0 0 0 0 0 0
0 0 0 0 0 0 8 0 0 0 0 0 0 0 0 0 0 0 0 0 0 0 0 0 0 0 0 0 0 0 0 0 0 0 0 0 0 0 0 0 0 0 0 0 0 0 0 0 0 0 0 0 0 0
0 0 0 0 0 0 9 0 0 0 0 0 0 0 0 0 0 0 0 0 0 0 0 0 0 0 0 0 0 0 0 0 0 0 0 0 0 0 0 0 0 0 0 0 0 0 0 0 0 0 0 0 0 0
0 0 0 0 0 0 4 0 0 0 0 0 0 0 0 0 0 0 0 0 0 0 0 0 0 0 0 0 0 0 0 0 0 0 0 0 0 0 0 0 0 0 0 0 0 0 0 0 0 0 0 0 0 0
0 0 0 0 0 0 0 0 0 0 0 0 0 0 0 0 0 0 0 0 0 0 0 0 0 0 0 0 0 0 0 0 0 0 0 0 0 0 0 0 0 0 0 0 0 0 0 0 0 0 0 0 0 0
0 0 0 0 0 0 4 0 0 0 0 0 0 0 0 0 0 0 0 0 0 0 0 0 0 0 0 0 0 0 0 0 0 0 0 0 0 0 0 0 0 0 0 0 0 0 0 0 0 0 0 0 0 0
2 2 0 0 0 0 6 0 0 0 0 0 0 0 0 0 0 0 0 0 0 0 0 0 0 0 0 0 0 0 0 0 0 0 0 0 0 0 0 0 0 0 0 0 0 0 0 0 0 0 0 0 0 0
1 0 0 0 15 17 0 0 0 0 0 0 0 0 0 0 0 0 0 0 0 0 0 0 0 0 0 0 0 0 0 0 0 0 0 0 0 0 0 0 0 0 0 0 0 0 0 0 0 0 0 0 0 0
0 0 0 15 45 9 2 0 0 0 0 1 0 0 0 0 0 0 0 0 0 0 0 0 0 0 0 0 0 0 0 0 0 0 0 0 0 0 0 0 0 0 0 0 0 0 0 0 0 0 0 0 0 0
0 0 0 20 11 0 0 0 0 0 0 0 0 0 0 0 0 0 0 0 0 0 0 0 0 0 0 0 0 0 0 0 0 0 0 0 0 0 0 0 0 0 0 0 0 0 0 0 0 0 0 0 0 0
0 2 1 24 14 1 0 0 0 0 0 0 0 0 0 0 0 0 0 0 0 0 0 0 0 0 0 0 0 0 0 0 0 0 0 0 0 0 0 0 0 0 0 0 0 0 0 0 0 0 0 0 0 0
7 7 12 25 0 0 0 0 0 1 0 0 0 0 0 0 0 0 0 0 0 0 0 0 0 0 0 0 0 0 0 0 0 0 0 0 0 0 0 0 0 0 0 0 0 0 0 0 0 0 0 0 0 0
2 10 6 0 0 0 0 0 0 0 0 0 1 0 0 0 0 0 0 2 0 0 0 0 0 0 0 0 0 0 0 0 0 0 0 0 0 0 0 0 0 0 0 0 0 0 0 0 0 0 0 0 0 0
4 0 0 0 0 0 0 0 0 0 0 0 0 0 0 0 0 0 0 0 0 0 0 0 0 0 0 0 0 0 0 0 0 0 0 0 0 0 0 0 0 0 0 0 0 0 0 0 0 0 0 0 0 0
1 0 0 0 0 0 0 0 0 0 0 0 0 0 0 0 0 0 0 0 0 0 0 0 0 0 0 0 0 0 0 0 0 0 0 0 0 0 0 0 0 0 0 0 0 0 0 0 0 0 0 0 0 0
0 0 0 0 0 0 0 0 0 0 0 0 0 0 0 0 0 0 0 0 0 0 0 0 0 0 0 0 0 0 0 0 0 0 0 0 0 0 0 0 0 0 0 0 0 0 0 0 0 0 0 0 0 0
0 0 0 0 0 0 0 0 0 0 0 0 0 0 0 0 0 0 0 0 0 0 0 0 0 0 0 0 0 0 0 0 0 0 0 0 0 0 0 0 0 0 0 0 0 0 0 0 0 0 0 0 0 0
0 0 0 0 0 0 0 0 0 0 0 0 0 0 0 0 0 0 0 0 0 0 0 0 0 0 0 0 0 0 0 0 0 0 0 0 0 0 0 0 0 0 0 0 0 0 0 0 0 0 0 0 0 0
0 0 0 0 0 0 0 0 0 0 0 0 0 0 0 0 0 0 0 0 0 0 0 0 0 0 0 0 0 0 0 0 0 0 0 0 0 0 0 0 0 0 0 0 0 0 0 0 0 0 0 0 0 0
0 0 0 0 0 0 0 0 0 0 0 0 0 0 0 0 0 0 0 0 0 0 0 0 0 0 0 0 0 0 0 0 0 0 0 0 0 0 0 0 0 0 0 0 0 0 0 0 0 0 0 0 0 0
0 0 0 0 0 0 0 0 0 0 0 0 0 0 0 0 0 0 0 0 0 0 0 0 0 0 0 0 0 0 0 0 0 0 0 0 0 0 0 0 0 0 0 0 0 0 0 0 0 0 0 0 0 0
0 0 0 0 0 0 0 0 0 0 0 0 0 0 0 0 0 0 0 0 0 0 0 0 0 0 0 0 0 0 0 0 0 0 0 0 0 0 0 0 0 0 0 0 0 0 0 0 0 0 0 0 0 0
0 0 0 0 0 0 0 0 0 0 0 0 0 0 0 0 0 0 0 0 0 0 0 0 0 0 0 0 0 0 0 0 0 0 0 0 0 0 0 0 0 0 0 0 0 0 0 0 0 0 0 0 0 0
0 0 0 0 0 0 0 0 0 0 0 0 0 0 0 0 0 0 0 0 0 0 0 0 0 0 0 0 0 0 0 0 0 0 0 0 0 0 0 0 0 0 0 0 0 0 0 0 0 0 0 0 0 0
CIN
-2 -0 -0 -0 -0 -0 -0 -0 -0 -0 -1 -0 -0 -0 -0 -0 -0 -0 -0 -0 -0 -0 -0 -0 -0 -0 -0 -0 -0 -0 -0 -0 -0 -0 -0 -0 -0 -0 -0 -0 -0 -0 -0 -0 -0 -0 -0 -0 -0 -0 -0 -0 -0 -0
-0 -0 -0 -0 -0 -0 -0 -0 -0 -0 -0 -0 -0 -0 -0 -0 -0 -0 -0 -0 -0 -0 -0 -0 -0 -0 -0 -0 -0 -0 -0 -0 -0 -0 -0 -0 -0 -0 -0 -0 -0 -0 -0 -0 -0 -0 -0 -0 -0 -0 -0 -0 -0 -0
-0 -0 -0 -0 -0 -0 -0 -0 -0 -0 -0 -0 -0 -0 -0 -0 -0 -0 -0 -0 -0 -0 -0 -0 -0 -0 -0 -0 -0 -0 -0 -0 -0 -0 -0 -0 -0 -0 -0 -0 -0 -0 -0 -0 -0 -0 -0 -0 -0 -0 -0 -0 -0 -0
-0 -0 -0 -0 -0 -0 -0 -0 -0 -0 -0 -0 -0 -0 -0 -0 -0 -0 -0 -0 -0 -0 -0 -0 -0 -0 -0 -0 -0 -0 -0 -0 -0 -0 -0 -0 -0 -0 -0 -0 -0 -0 -0 -0 -0 -0 -0 -0 -0 -0 -0 -0 -0 -0
-0 -0 -0 -0 -0 -0 -0 -0 -0 -0 -0 -0 -0 -0 -0 -0 -0 -0 -0 -0 -0 -0 -0 -0 -0 -0 -0 -0 -0 -0 -0 -0 -0 -0 -0 -0 -0 -0 -0 -0 -0 -0 -0 -0 -0 -0 -0 -0 -0 -0 -0 -0 -0 -0
-0 -0 -0 -0 -0 -0 -0 -0 -0 -0 -0 -0 -0 -0 -0 -0 -0 -0 -0 -0 -0 -0 -0 -0 -0 -0 -0 -0 -0 -0 -0 -0 -0 -0 -0 -0 -0 -0 -0 -0 -0 -0 -0 -0 -0 -0 -0 -0 -0 -0 -0 -0 -0 -0
-0 -0 -0 -0 -0 -0 -0 -0 -0 -0 -0 -0 -0 -0 -0 -0 -0 -0 -0 -0 -0 -0 -0 -0 -0 -0 -0 -0 -0 -0 -0 -0 -0 -0 -0 -0 -0 -0 -0 -0 -0 -0 -0 -0 -0 -0 -0 -0 -0 -0 -0 -0 -0 -0
-0 -0 -0 -0 -0 -0 -0 -0 -0 -0 -0 -0 -0 -0 -0 -0 -0 -0 -0 -0 -0 -0 -0 -0 -0 -0 -0 -0 -0 -0 -0 -0 -0 -0 -0 -0 -0 -0 -0 -0 -0 -0 -0 -0 -0 -0 -0 -0 -0 -0 -0 -0 -0 -0
-0 -0 -0 -0 -0 -0 -0 -0 -2 -0 -0 -0 -0 -0 -0 -0 -0 -0 -0 -0 -0 -0 -0 -0 -0 -0 -0 -0 -0 -0 -0 -0 -0 -0 -0 -0 -0 -0 -0 -0 -0 -0 -0 -0 -0 -0 -0 -0 -0 -0 -0 -0 -0 -0
-0 -0 -0 -0 -0 -0 -0 -0 -0 -0 -0 -0 -0 -0 -0 -0 -0 -0 -0 -0 -0 -0 -0 -0 -0 -0 -0 -0 -0 -0 -0 -0 -0 -0 -0 -0 -0 -0 -0 -0 -0 -0 -0 -0 -0 -0 -0 -0 -0 -0 -0 -0 -0 -0
-0 -0 -0 -0 -0 -0 -0 -0 -0 -0 -0 -0 -0 -0 -0 -0 -0 -0 -0 -0 -0 -0 -0 -0 -0 -0 -0 -0 -0 -0 -0 -0 -0 -0 -0 -0 -0 -0 -0 -0 -0 -0 -0 -0 -0 -0 -0 -0 -0 -0 -0 -0 -0 -0
-0 -0 -0 -0 -0 -0 -0 -0 -0 -0 -0 -0 -0 -0 -0 -0 -0 -0 -0 -0 -0 -0 -0 -0 -0 -0 -0 -0 -0 -0 -0 -0 -0 -0 -0 -0 -0 -0 -0 -0 -0 -0 -0 -0 -0 -0 -0 -0 -0 -0 -0 -0 -0 -0
-0 -0 -0 -0 -0 -0 -0 -0 -0 -0 -0 -0 -0 -0 -0 -0 -0 -0 -0 -0 -0 -0 -0 -0 -0 -0 -0 -0 -0 -0 -0 -0 -0 -0 -0 -0 -0 -0 -0 -0 -0 -0 -0 -0 -0 -0 -0 -0 -0 -0 -0 -0 -0 -0
-0 -0 -0 -0 -0 -0 -1 -0 -0 -0 -0 -0 -0 -0 -0 -0 -0 -0 -0 -0 -0 -0 -0 -0 -0 -0 -0 -0 -0 -0 -0 -0 -0 -0 -0 -0 -0 -0 -0 -0 -0 -0 -0 -0 -0 -0 -0 -0 -0 -0 -0 -0 -0 -0
-0 -0 -0 -0 -0 -0 -6 -22 -0 -0 -0 -0 -0 -0 -0 -0 -0 -0 -0 -0 -0 -0 -0 -0 -0 -0 -0 -0 -0 -0 -0 -0 -0 -0 -0 -0 -0 -0 -0 -0 -0 -0 -0 -0 -0 -0 -0 -0 -0 -0 -0 -0 -0 -0
-0 -0 -0 -0 -0 -0 -5 -0 -0 -0 -0 -0 -0 -0 -0 -0 -0 -0 -0 -0 -0 -0 -0 -0 -0 -0 -0 -0 -0 -0 -0 -0 -0 -0 -0 -0 -0 -0 -0 -0 -0 -0 -0 -0 -0 -0 -0 -0 -0 -0 -0 -0 -0 -0
-0 -0 -0 -1 -1 -0 -1 -0 -0 -0 -0 -0 -0 -0 -0 -0 -0 -0 -0 -0 -0 -0 -0 -0 -0 -0 -0 -0 -0 -0 -0 -0 -0 -0 -0 -0 -0 -0 -0 -0 -0 -0 -0 -0 -0 -0 -0 -0 -0 -0 -0 -0 -0 -0
-0 -0 -0 -3 -0 -2 -0 -0 -0 -0 -0 -0 -0 -0 -0 -0 -0 -0 -0 -0 -0 -0 -0 -0 -0 -0 -0 -0 -0 -0 -0 -0 -0 -0 -0 -0 -0 -0 -0 -0 -0 -0 -0 -0 -0 -0 -0 -0 -0 -0 -0 -0 -0 -0
-0 -0 -0 -0 -1 -1 -0 -0 -0 -0 -0 -0 -0 -0 -0 -0 -0 -0 -0 -0 -0 -0 -0 -0 -0 -0 -0 -0 -0 -0 -0 -0 -0 -0 -0 -0 -0 -0 -0 -0 -0 -0 -0 -0 -0 -0 -0 -0 -0 -0 -0 -0 -0 -0
-0 -0 -0 -0 -1 -0 -0 -0 -0 -0 -0 -0 -0 -0 -0 -0 -0 -0 -0 -0 -0 -0 -0 -0 -0 -0 -0 -0 -0 -0 -0 -0 -0 -0 -0 -0 -0 -0 -0 -0 -0 -0 -0 -0 -0 -0 -0 -0 -0 -0 -0 -0 -0 -0
-0 -0 -0 -0 -1 -0 -0 -0 -0 -0 -0 -0 -0 -0 -0 -0 -0 -0 -0 -0 -0 -0 -0 -0 -0 -0 -0 -0 -0 -0 -0 -0 -0 -0 -0 -0 -0 -0 -0 -0 -0 -0 -0 -0 -0 -0 -0 -0 -0 -0 -0 -0 -0 -0
-0 -0 -0 -1 -0 -0 -0 -0 -0 -0 -0 -0 -0 -0 -0 -0 -0 -0 -0 -0 -0 -0 -0 -0 -0 -0 -0 -0 -0 -0 -0 -0 -0 -0 -0 -0 -0 -0 -0 -0 -0 -0 -0 -0 -0 -0 -0 -0 -0 -0 -0 -0 -0 -0
-0 -0 -0 -0 -0 -0 -0 -0 -0 -0 -0 -0 -0 -0 -0 -0 -0 -0 -0 -0 -0 -0 -0 -0 -0 -0 -0 -0 -0 -0 -0 -0 -0 -0 -0 -0 -0 -0 -0 -0 -0 -0 -0 -0 -0 -0 -0 -0 -0 -0 -0 -0 -0 -0
-0 -0 -0 -0 -0 -0 -0 -0 -0 -0 -0 -0 -0 -0 -0 -0 -0 -0 -0 -0 -0 -0 -0 -0 -0 -0 -0 -0 -0 -0 -0 -0 -0 -0 -0 -0 -0 -0 -0 -0 -0 -0 -0 -0 -0 -0 -0 -0 -0 -0 -0 -0 -0 -0
-0 -0 -0 -0 -0 -0 -0 -0 -0 -0 -0 -0 -0 -0 -0 -0 -0 -0 -0 -0 -0 -0 -0 -0 -0 -0 -0 -0 -0 -0 -0 -0 -0 -0 -0 -0 -0 -0 -0 -0 -0 -0 -0 -0 -0 -0 -0 -0 -0 -0 -0 -0 -0 -0
-0 -0 -0 -0 -0 -0 -0 -0 -0 -0 -0 -0 -0 -0 -0 -0 -0 -0 -0 -0 -0 -0 -0 -0 -0 -0 -0 -0 -0 -0 -0 -0 -0 -0 -0 -0 -0 -0 -0 -0 -0 -0 -0 -0 -0 -0 -0 -0 -0 -0 -0 -0 -0 -0
-0 -0 -0 -0 -0 -0 -0 -0 -0 -0 -0 -0 -0 -0 -0 -0 -0 -0 -0 -0 -0 -0 -0 -0 -0 -0 -0 -0 -0 -0 -0 -0 -0 -0 -0 -0 -0 -0 -0 -0 -0 -0 -0 -0 -0 -0 -0 -0 -0 -0 -0 -0 -0 -0
-0 -0 -0 -0 -0 -0 -0 -0 -0 -0 -0 -0 -0 -0 -0 -0 -0 -0 -0 -0 -0 -0 -0 -0 -0 -0 -0 -0 -0 -0 -0 -0 -0 -0 -0 -0 -0 -0 -0 -0 -0 -0 -0 -0 -0 -0 -0 -0 -0 -0 -0 -0 -0 -0
-0 -0 -0 -0 -0 -0 -0 -0 -0 -0 -0 -0 -0 -0 -0 -0 -0 -0 -0 -0 -0 -0 -0 -0 -0 -0 -0 -0 -0 -0 -0 -0 -0 -0 -0 -0 -0 -0 -0 -0 -0 -0 -0 -0 -0 -0 -0 -0 -0 -0 -0 -0 -0 -0
-0 -0 -0 -0 -0 -0 -0 -0 -0 -0 -0 -0 -0 -0 -0 -0 -0 -0 -0 -0 -0 -0 -0 -0 -0 -0 -0 -0 -0 -0 -0 -0 -0 -0 -0 -0 -0 -0 -0 -0 -0 -0 -0 -0 -0 -0 -0 -0 -0 -0 -0 -0 -0 -0
-0 -0 -0 -0 -0 -0 -0 -0 -0 -0 -0 -0 -0 -0 -0 -0 -0 -0 -0 -0 -0 -0 -0 -0 -0 -0 -0 -0 -0 -0 -0 -0 -0 -0 -0 -0 -0 -0 -0 -0 -0 -0 -0 -0 -0 -0 -0 -0 -0 -0 -0 -0 -0 -0
-0 -0 -0 -0 -0 -0 -0 -0 -0 -0 -0 -0 -0 -0 -0 -0 -0 -0 -0 -0 -0 -0 -0 -0 -0 -0 -0 -0 -0 -0 -0 -0 -0 -0 -0 -0 -0 -0 -0 -0 -0 -0 -0 -0 -0 -0 -0 -0 -0 -0 -0 -0 -0 -0
-0 -0 -0 -0 -0 -0 -0 -0 -0 -0 -0 -0 -0 -0 -0 -0 -0 -0 -0 -0 -0 -0 -0 -0 -0 -0 -0 -0 -0 -0 -0 -0 -0 -0 -0 -0 -0 -0 -0 -0 -0 -0 -0 -0 -0 -0 -0 -0 -0 -0 -0 -0 -0 -0
Wind_Speed
11 9 4 23 20 18 14 12 9 6 4 13 16 13 7 11 18 22 22 17 22 24 24 21 20 22 20 18 19 19 16 15 14 15 14 14 14 13 12 13 12 12 11 12 12 12 11 14 13 11 12 12 13 14
8 9 8 23 24 22 19 17 14 12 9 13 18 10 5 2 5 17 21 17 17 23 23 20 20 19 18 18 17 18 16 15 14 14 14 13 13 13 12 12 12 11 13 12 12 11 11 12 12 12 12 13 12 14
7 6 9 9 24 23 21 19 17 15 13 15 16 11 8 6 6 12 20 16 20 22 21 20 19 18 17 16 17 16 16 14 15 14 13 13 12 12 11 11 11 11 11 10 9 11 9 8 9 9 10 10 12 14
7 5 9 5 25 24 22 20 19 18 16 14 17 16 13 12 10 8 18 13 18 18 17 18 17 17 16 16 16 16 14 14 14 13 12 12 11 11 10 9 9 10 12 10 7 6 7 6 7 9 9 11 12 14
5 7 7 7 7 23 24 22 21 19 18 17 13 15 16 15 14 13 13 12 9 17 14 15 16 15 15 16 15 14 14 14 13 11 10 10 9 8 8 6 6 7 7 7 6 11 11 11 11 11 10 11 12 13
7 6 9 7 6 9 24 23 22 22 19 18 17 14 16 17 18 15 12 15 16 16 13 12 12 12 12 12 12 11 11 10 9 9 8 8 9 9 8 7 7 8 8 9 7 10 13 12 12 13 12 14 14 15
8 6 12 12 4 5 17 22 23 24 21 18 16 14 15 15 15 15 14 19 21 18 13 13 12 10 8 8 8 8 9 9 8 8 6 6 6 7 7 2 6 6 6 7 9 9 9 10 11 13 14 15 15 16
10 7 10 14 10 8 9 23 24 20 14 11 11 13 15 12 10 15 18 19 19 16 15 14 16 13 10 9 9 11 10 10 10 10 11 9 10 8 6 3 7 7 7 7 6 8 11 12 13 14 14 15 16 17
11 9 12 14 14 15 16 21 14 3 3 7 10 13 18 18 15 15 17 21 17 15 16 14 14 19 14 10 11 13 13 14 12 11 13 11 9 4 4 5 4 5 7 8 8 9 9 11 11 13 14 15 17 18
13 11 12 15 15 16 16 14 11 11 7 4 11 15 17 16 17 17 17 20 18 17 17 18 16 16 16 14 15 16 14 16 17 13 13 13 10 9 4 6 5 5 7 8 10 10 9 9 11 12 14 15 17 19
14 12 13 15 13 13 9 8 10 10 8 6 5 5 15 16 14 17 20 20 19 20 17 18 16 17 15 16 16 15 19 19 21 19 17 18 21 16 7 1 5 6 7 8 12 12 8 10 10 13 15 16 19 21
17 14 14 14 14 10 5 3 6 7 9 8 8 9 8 7 7 8 19 19 20 22 19 20 19 17 15 16 17 18 20 20 22 18 20 22 21 15 11 8 8 7 8 9 11 12 13 13 13 15 17 19 21 22
19 16 14 14 13 10 7 3 3 7 8 11 12 11 10 8 5 6 6 18 22 19 17 17 19 17 17 17 19 20 22 22 21 22 23 20 20 14 10 9 10 9 9 10 11 12 13 14 15 17 19 20 22 24
20 17 15 13 13 11 7 5 4 7 11 13 14 15 10 10 8 6 5 9 11 15 16 15 16 18 18 18 19 22 22 22 25 27 26 24 18 10 8 8 9 9 10 10 10 12 13 15 17 19 21 22 24 26
22 18 16 15 12 11 10 7 7 12 14 16 15 19 13 12 13 11 9 10 7 6 6 9 15 17 19 21 20 21 23 25 24 26 24 26 16 8 8 9 9 10 10 11 11 12 14 16 19 21 22 23 25 27
23 20 22 16 13 12 10 8 13 15 18 19 18 17 15 17 16 13 9 11 8 6 8 9 10 9 9 17 22 23 24 27 26 24 26 22 14 11 11 10 11 11 11 11 12 13 15 17 20 22 24 25 26 28
24 28 20 16 13 12 11 15 17 19 21 21 20 18 17 20 19 14 12 12 5 6 10 11 11 10 8 8 16 23 27 27 29 31 26 18 14 13 12 12 12 12 12 12 13 15 17 19 21 24 26 26 28 29
31 25 21 18 15 12 18 19 21 24 27 25 23 20 17 17 16 15 14 8 8 10 12 14 11 12 10 11 11 23 27 28 29 29 22 17 13 12 11 11 12 12 12 14 15 16 18 20 23 24 26 27 29 30
28 24 23 22 18 17 21 24 25 29 29 27 24 21 20 20 18 18 15 13 16 15 14 15 16 17 14 11 12 19 31 33 34 28 20 15 14 13 12 11 11 11 13 14 15 17 19 21 23 24 25 27 29 30
25 26 25 24 20 21 23 27 24 33 32 29 25 23 23 23 21 19 17 15 16 17 17 20 20 20 17 13 9 12 26 29 29 30 26 19 16 13 11 10 10 11 14 15 16 17 20 22 23 24 25 27 29 30
20 24 25 23 24 23 24 24 27 28 29 32 25 21 25 23 24 24 22 17 20 23 26 23 23 21 19 19 18 19 17 23 31 29 25 20 15 12 11 11 10 12 14 14 16 19 20 22 23 24 25 26 27 28
21 23 22 23 24 25 29 23 25 21 23 27 25 26 29 28 26 25 21 24 28 26 26 27 26 26 25 24 23 22 21 18 22 25 22 17 15 13 11 10 12 13 13 14 16 18 20 21 22 23 24 26 27 27
20 20 22 22 24 27 32 22 30 25 27 27 23 26 28 27 26 18 27 28 30 27 27 28 27 27 28 27 25 23 20 19 20 22 22 21 17 13 11 11 12 12 14 15 15 16 19 20 21 22 23 25 26 27
20 22 24 24 27 29 24 29 28 28 29 29 27 30 28 25 22 28 34 33 30 29 27 26 27 29 30 30 28 25 22 19 20 20 21 19 18 15 13 11 11 13 14 14 14 17 18 19 20 21 23 24 25 26
26 27 26 29 27 29 33 31 30 30 34 30 31 32 27 23 31 36 38 34 30 31 29 28 28 29 31 31 28 25 21 19 20 21 23 20 17 15 13 11 12 12 13 13 14 16 17 17 18 20 21 22 24 25
33 29 32 31 30 31 32 34 34 32 30 31 30 27 26 30 36 39 34 33 33 31 30 28 28 29 28 26 26 23 21 19 19 22 23 20 17 15 12 11 12 15 12 13 13 15 15 16 17 18 20 20 22 24
34 33 30 25 26 26 29 27 24 27 31 32 27 26 27 33 36 37 33 30 30 30 28 25 24 24 25 25 22 21 17 16 19 21 21 19 16 13 11 11 12 15 9 9 11 12 13 14 16 16 18 19 20 21
32 32 33 29 29 28 30 30 31 32 30 23 22 29 32 33 38 34 30 30 28 27 27 25 23 23 23 22 18 15 15 14 15 16 17 17 15 14 12 12 11 9 10 10 10 11 12 14 14 15 17 19 19 19
33 27 25 32 29 30 31 31 29 28 25 26 32 35 38 35 35 34 32 30 28 27 27 26 24 20 18 16 13 14 14 15 18 21 22 20 17 16 11 9 10 11 10 11 10 11 12 13 14 15 17 18 18 19
30 26 30 30 34 35 30 27 30 28 27 29 32 35 36 34 32 29 28 28 27 28 26 24 20 17 16 12 15 14 17 20 21 21 20 17 14 9 6 7 8 9 9 9 9 10 12 14 15 17 18 18 19 20
21 26 29 30 34 30 28 25 26 26 28 31 30 33 33 33 31 27 26 25 25 23 22 19 16 14 13 13 14 14 20 26 28 22 18 14 9 7 6 7 7 7 7 7 8 9 11 12 13 16 17 18 20 20
26 30 31 34 33 28 26 28 27 28 27 28 29 28 30 31 34 30 24 19 19 18 17 16 15 15 14 19 25 25 26 19 23 19 14 11 7 5 4 4 5 5 6 6 7 9 10 12 14 16 17 18 20 20
27 28 29 29 28 27 25 23 25 27 27 29 29 27 27 28 32 26 19 15 17 17 16 16 17 21 21 24 24 22 17 16 17 15 9 7 5 2 2 4 5 5 5 6 7 8 10 12 15 16 17 18 19 19
Wind_Direction
15 24 59 286 277 272 268 267 268 269 259 141 135 130 111 125 134 134 137 149 147 140 148 159 161 160 161 160 152 155 160 156 157 151 153 152 156 154 161 151 157 159 162 157 155 163 161 105 109 128 90 70 48 38
20 21 38 277 288 278 283 274 275 277 269 171 142 165 163 138 155 148 136 152 156 137 146 158 159 168 172 170 162 160 157 160 161 158 156 158 161 159 166 159 149 155 142 135 135 136 121 114 85 80 63 43 41 23
21 26 34 231 285 286 288 275 284 277 270 213 185 210 230 259 285 166 138 164 147 130 138 148 157 159 161 170 169 155 153 169 155 156 157 158 165 159 154 147 139 135 126 127 130 108 128 109 71 55 47 40 27 17
9 31 30 63 297 283 283 282 274 284 273 270 233 232 249 268 285 275 153 192 157 150 139 154 156 161 173 167 163 167 170 170 170 165 148 147 148 135 143 141 135 114 94 104 122 148 85 101 81 47 34 25 18 12
360 11 29 44 59 300 280 279 276 283 291 275 306 291 281 276 279 286 341 302 234 117 118 135 145 147 170 176 156 149 156 166 168 142 113 121 114 108 106 117 160 123 120 115 100 57 45 48 43 38 28 19 15 9
339 358 0 41 63 16 289 283 279 270 286 300 295 305 301 302 286 315 49 325 313 305 79 69 115 123 125 132 118 113 127 120 110 98 89 88 66 69 89 103 99 109 92 58 68 40 21 26 24 20 17 12 11 8
318 342 336 358 94 80 316 292 283 273 281 296 311 326 319 310 315 317 341 313 296 308 28 10 19 58 70 74 77 66 45 47 46 51 66 54 51 49 32 165 50 73 70 49 37 32 20 15 12 16 15 13 12 9
299 320 329 335 3 25 175 271 286 287 287 304 323 322 323 339 338 310 316 328 321 330 344 351 343 7 27 3 4 17 9 12 10 4 7 16 20 26 27 99 52 51 45 46 47 27 14 14 15 14 13 10 5 3
285 300 314 323 332 340 346 258 187 173 267 303 315 321 312 311 306 310 320 317 324 321 329 339 340 329 355 356 352 349 354 343 357 347 343 356 352 5 33 43 68 64 44 35 38 31 25 15 14 11 9 6 2 0
273 285 301 309 318 326 338 7 48 105 104 343 315 320 313 315 311 314 317 314 317 315 312 313 321 324 335 340 332 334 344 334 335 347 356 335 316 243 297 359 29 36 24 34 19 11 19 14 11 8 5 5 2 358
262 275 288 296 308 315 345 36 66 70 57 55 57 56 332 318 314 309 301 303 310 311 317 317 309 307 321 323 324 332 327 327 324 334 334 338 331 341 350 298 356 14 19 17 6 12 21 14 12 8 5 3 360 357
257 261 274 283 288 296 314 49 82 16 5 13 22 31 53 37 12 337 301 301 299 303 315 314 314 313 313 317 317 321 318 320 315 332 326 327 333 339 354 4 6 11 12 12 11 14 16 15 13 7 3 0 358 356
249 253 261 271 275 273 277 259 312 356 17 356 357 359 3 1 353 349 315 301 294 303 314 319 315 315 315 313 311 313 310 308 322 314 313 320 331 340 346 358 3 8 18 13 10 11 12 10 6 3 359 359 357 355
240 244 248 256 263 257 248 226 260 315 326 325 324 321 343 348 355 343 344 344 330 318 315 314 313 315 316 311 311 307 309 313 309 310 313 318 326 328 341 352 2 1 5 5 5 6 4 2 359 358 358 358 356 354
233 235 239 247 247 246 243 226 247 292 302 304 314 309 312 325 335 348 355 355 0 16 27 342 325 315 310 305 307 308 309 306 310 314 323 322 325 329 332 339 346 349 350 353 358 359 357 356 354 354 356 357 355 355
229 237 245 239 238 233 224 225 268 283 290 295 298 307 316 311 308 318 333 343 9 23 17 5 349 340 311 307 300 296 303 302 311 319 322 322 321 323 328 331 335 340 344 349 351 353 353 352 351 352 354 355 356 355
221 249 231 222 225 221 212 258 268 273 282 287 294 290 299 308 310 311 317 324 351 351 338 352 340 338 1 323 306 297 297 307 312 314 320 320 314 316 320 326 330 334 341 346 349 350 350 352 352 351 351 355 356 355
242 237 210 204 208 211 257 260 264 272 275 277 286 292 290 296 309 311 315 329 337 325 324 324 341 321 318 315 307 304 306 313 317 319 319 317 316 317 319 323 327 330 336 340 344 345 347 347 348 349 352 356 356 356
231 217 202 197 212 244 256 260 263 274 272 279 281 289 289 293 293 299 297 297 306 312 315 317 317 317 300 290 273 301 306 306 308 314 316 314 313 313 316 319 323 328 333 336 340 342 343 346 349 351 354 356 356 357
219 206 199 197 205 253 261 267 267 267 275 277 281 281 283 286 290 290 290 290 289 299 295 298 294 302 303 299 296 307 309 310 311 306 300 299 304 306 305 310 315 327 333 335 339 341 341 345 349 352 355 357 357 357
211 214 195 203 238 257 260 269 268 276 274 273 282 282 286 289 285 285 286 284 284 288 291 289 284 284 291 293 292 301 302 303 299 300 299 289 294 295 298 305 316 324 327 331 333 335 339 344 349 352 356 358 358 360
238 191 217 233 249 252 262 264 275 278 281 286 281 278 283 286 288 286 289 281 282 282 288 290 286 285 284 285 283 281 287 292 296 293 291 290 284 284 283 292 308 314 321 327 331 334 340 346 350 354 358 358 360 2
197 227 233 244 253 253 265 254 264 270 279 285 284 285 289 290 293 296 292 289 286 284 286 286 284 286 284 290 294 289 282 278 282 279 276 280 283 281 282 293 304 311 319 326 334 338 341 347 351 356 359 360 1 3
222 232 244 241 247 255 262 261 266 266 275 276 284 288 292 292 297 294 292 293 291 296 291 286 287 287 289 288 283 279 273 273 275 271 268 269 271 273 279 294 302 310 318 329 335 338 342 347 353 357 359 360 2 3
233 240 247 249 251 255 258 260 263 268 272 277 276 285 293 297 293 293 292 298 299 296 291 289 288 284 282 285 285 278 273 261 261 258 259 260 264 270 285 298 302 309 322 328 331 336 341 348 354 357 359 1 2 4
242 247 242 244 250 256 258 261 261 267 273 276 280 290 293 292 292 292 299 303 300 298 295 290 289 289 285 279 282 277 269 260 261 257 254 248 247 254 268 279 292 304 315 325 331 335 341 349 354 357 359 2 4 6
241 247 249 256 254 258 260 268 267 269 271 275 283 286 290 291 293 297 304 302 299 302 301 297 294 288 286 290 280 283 273 259 253 252 254 247 253 261 264 277 293 310 321 326 331 336 343 350 355 359 1 4 6 9
249 249 247 246 253 256 261 263 266 268 273 280 279 281 287 289 293 300 303 309 310 310 310 306 299 294 293 293 289 280 268 262 256 250 248 252 265 272 284 298 312 326 329 332 336 341 348 355 360 2 4 4 7 10
251 250 248 251 256 259 261 264 266 273 276 275 277 281 286 289 295 296 300 305 309 308 307 305 305 307 306 302 293 278 251 235 227 229 230 240 249 264 275 297 314 323 328 335 340 348 356 1 5 6 7 7 9 10
250 244 255 253 257 259 266 267 273 277 279 279 283 287 289 292 296 299 300 300 300 300 302 302 299 297 292 279 295 272 248 245 239 229 224 228 238 239 252 289 314 322 330 337 346 355 2 5 10 9 9 8 8 9
245 252 258 259 262 268 272 276 283 285 282 281 285 284 287 294 297 299 299 298 298 299 299 298 298 292 286 279 285 262 251 246 244 242 245 247 244 235 256 291 307 323 335 344 353 360 4 7 9 8 8 7 8 9
254 254 256 261 267 272 277 277 276 277 282 285 287 290 293 294 293 296 299 298 296 292 288 287 282 283 280 287 273 261 256 234 234 236 233 240 243 242 272 295 320 334 344 353 2 7 12 12 12 10 9 9 10 11
262 261 263 265 268 268 271 273 278 284 286 286 287 290 290 293 293 301 307 295 292 291 289 285 282 277 276 277 264 255 246 231 218 223 217 199 187 203 288 314 326 343 360 8 15 19 19 17 13 11 12 13 15 15